Regional Weather Roundup
Issued by NWS Sterling, VA

Home | Current Version | Previous Version | Graphics & Text | Print | Product List | Glossary On
Versions: 1 2 3 4 5 6 7 8 9 10 11 12 13 14 15 16 17 18 19 20 21 22 23 24 25 26 27 28 29 30 31 32 33 34 35 36 37 38 39 40 41 42 43 44 45 46 47 48 49 50
000
ASUS41 KLWX 020810
RWRLWX

REGIONAL WEATHER ROUNDUP
NATIONAL WEATHER SERVICE BALTIMORE MD/WASHINGTON DC
400 AM EDT SUN AUG 02 2015

Note: "FAIR" indicates few or no clouds below 12,000 feet
with no significant weather and/or obstructions to visibility.
 TC=TEMPERATURE CELSIUS

 * =Non NWS site. Station does not report precipitation (e.g. rain,
    snow, etc.), thunder, or fog.

DCZ001-MDZ009-015-VAZ040>042-051-053>054-020900-
WASHINGTON METRO

CITY           SKY/WX    TMP DP  RH WIND       PRES   REMARKS
WASHINGTON NAT MOCLDY    77  59  53 NW6       29.92S
DULLES         MOCLDY    64  59  83 CALM      29.93S
LEESBURG*      PTCLDY    64  63  94 CALM      29.94S
MANASSAS*      CLEAR     64  63  94 CALM      29.93S
GAITHERSBURG*  PTCLDY    63  57  82 CALM      29.97S

$$

MDZ006>007-011-014-020900-
BALTIMORE METRO

CITY           SKY/WX    TMP DP  RH WIND       PRES   REMARKS
BWI AIRPORT    PTCLDY    68  61  78 CALM      29.91S
MD SCIENCE CTR   N/A     76  58  53 MISG      29.91S
MARTIN STATE   PTCLDY    70  64  83 CALM      29.92S
ANNAPOLIS      PTCLDY    71  62  73 CALM      29.90S
FORT MEADE*    PTCLDY    63  61  94 CALM      29.94R

$$

MDZ012-015-019>023-020900-
MARYLAND EASTERN SHORE

CITY           SKY/WX    TMP DP  RH WIND       PRES   REMARKS
OCEAN CITY     PTCLDY    67  64  90 CALM      29.88R
SALISBURY      CLEAR     69  66  90 NW3       29.88S
BAY BRIDGE AP*   N/A     75  64  69 NW3       29.90S
CAMBRIDGE*     CLEAR     77  68  73 N5        29.89S
EASTON*        PTCLDY    71  71 100 CALM      29.93S

$$

MDZ017>025-020900-
SOUTHERN MARYLAND

CITY           SKY/WX    TMP DP  RH WIND       PRES   REMARKS
PATUXENT RIVER PTCLDY    75  61  61 NW8       29.89S
ST INIGOES     CLEAR     71  65  81 CALM      29.88F
LEONARDTOWN*   PTCLDY    70  61  73 CALM      29.92S

$$

MDZ003>005-020900-
NORTH CENTRAL MARYLAND

CITY           SKY/WX    TMP DP  RH WIND       PRES   REMARKS
FREDERICK*     CLEAR     61  61 100 CALM      29.95F
HAGERSTOWN APT CLEAR     66  57  72 S3        29.94S
WESTMINSTER*   CLEAR     64  59  82 CALM      29.94S

$$

MDZ501>502-020900-
WESTERN MARYLAND

CITY           SKY/WX    TMP DP  RH WIND       PRES   REMARKS
OAKLAND*       CLEAR     59 N/A N/A W3        30.04F
CUMBERLAND*    CLEAR     59  59 100 CALM      29.99S

$$

VAZ025>031-020900-
SHENANDOAH VALLEY

CITY           SKY/WX    TMP DP  RH WIND       PRES   REMARKS
WINCHESTER*    CLEAR     63  55  77 CALM      29.95S
FRONT ROYAL*   FAIR      63  55  77 CALM      29.95S
LURAY*         FAIR      61  61 100 CALM      29.97S
NEW MARKET*    FAIR      57  56  96 CALM      29.97S
STAUNTON*      CLEAR     58  55  89 CALM      30.01R
WAYNESBORO*    FAIR      56  55  95 SW5       30.00R

$$

WVZ021-048>050-054>055-020900-
EASTERN WEST VIRGINIA PANHANDLE

CITY           SKY/WX    TMP DP  RH WIND       PRES   REMARKS
MARTINSBURG    CLEAR     59  56  89 S3        29.94S
PETERSBURG*    CLEAR    N/A N/A N/A CALM      29.99S

$$

VAZ036>039-050-020900-
CENTRAL FOOTHILLS

CITY           SKY/WX    TMP DP  RH WIND       PRES   REMARKS
CHARLOTTESVILL CLEAR     66  59  78 W5        29.94S
CULPEPER*      CLEAR     62  62  99 CALM      29.94S
ORANGE*        CLEAR     63  61  94 CALM      29.95S
GORDONSVILLE*  FAIR      61  61 100 CALM      29.93S
WARRENTON*     FOG       60  60 100 CALM      29.93S VSB 3/4

$$

VAZ055>057-020900-
NORTH AND CENTRAL PIEDMONT

CITY           SKY/WX    TMP DP  RH WIND       PRES   REMARKS
FREDERICKSBRG* MOCLDY    69  64  82 CALM      29.91S
STAFFORD*      PTCLDY    62  60  94 CALM      29.96S

$$

NCZ024-NYZ072-PAZ021-071-VAZ022-071-020900-
OTHER REGIONAL OBSERVATIONS

CITY           SKY/WX    TMP DP  RH WIND       PRES   REMARKS
NEW YORK CITY  CLEAR     74  55  51 CALM      29.90S
PHILADELPHIA   PTCLDY    72  59  63 NW6       29.90R
PITTSBURGH     PTCLDY    65  56  72 CALM      29.96S
ROANOKE        CLEAR     62  57  83 CALM      30.02R
RICHMOND       PTCLDY    72  61  68 N6        29.91S
RALEIGH        PTCLDY    72  60  66 N3        29.93S

$$

ANZ530>537-020900-
MARINE OBSERVATIONS

STATION/POSITION TIME  TEMP    WIND        PRES
                       AIR SEA DIR/SP/G
                 (UTC) (F)     (DEG/KT/KT) (MB)
THOMAS PT LIGHT  NOT AVBL
BALT KEY BRIDGE  0700   77     270/  5/  6 1012.5S
COVE POINT       0700   80     350/ 13/ 16 1012.9S
LEWISETTA        0700   80 85   10/  7/ 10 1012.0S
SOLOMONS ISLAND  0700      83                N/A
PINEY POINT      0700           10/  8/  9   N/A

$$



USA.gov is the U.S. government's official web portal to all federal, state and local government web resources and services.